Terminal Aerodrome Forecast
Issued by NWS Memphis, TN

Home | Current Version | Previous Version | Text Only | Print | Product List | Glossary On
Versions: 1 2 3 4 5 6 7 8 9 10 11 12 13 14 15 16 17 18
000
FTUS44 KMEG 252330
TAFMKL
TAF
KMKL 252330Z 2600/2624 26010G18KT P6SM VCSH BKN035 OVC070
     FM260400 30014G22KT P6SM OVC018
     FM261400 33011KT P6SM BKN022
     FM261700 31008KT P6SM SCT040
     FM262000 27008KT P6SM FEW100=

USA.gov is the U.S. government's official web portal to all federal, state and local government web resources and services.